Time,TemperatureF,DewpointF,PressureIn,WindDirection,WindDirectionDegrees,WindSpeedMPH,WindSpeedGustMPH,Humidity,HourlyPrecipIn,Conditions,Clouds,dailyrainin,SoftwareType,DateUTC
2013-03-10 00:00:00,68.4,66.6,29.70,SSE,157,10.0,25.0,94,0.00,,---,0.00,VWS V14.01,2013-03-10 06:00:00,
2013-03-10 00:05:00,68.4,66.3,29.72,SSE,153,11.0,15.0,93,0.00,,---,0.00,VWS V14.01,2013-03-10 06:05:00,
2013-03-10 00:10:00,68.5,66.4,29.72,South,172,12.0,15.0,93,0.00,,---,0.00,VWS V14.01,2013-03-10 06:10:00,
2013-03-10 00:15:00,68.5,66.4,29.72,SE,129,9.0,15.0,93,0.00,,---,0.00,VWS V14.01,2013-03-10 06:15:00,
2013-03-10 00:20:00,68.6,66.5,29.72,SSE,154,9.0,15.0,93,0.00,,---,0.00,VWS V14.01,2013-03-10 06:20:00,
2013-03-10 00:25:00,68.6,66.5,29.71,SE,134,11.0,18.0,93,0.00,,---,0.00,VWS V14.01,2013-03-10 06:25:00,
2013-03-10 00:30:00,68.6,66.5,29.71,SSE,159,10.0,18.0,93,0.00,,---,0.00,VWS V14.01,2013-03-10 06:30:00,
2013-03-10 00:35:00,68.5,66.4,29.70,SE,135,9.0,18.0,93,0.00,,---,0.00,VWS V14.01,2013-03-10 06:35:00,
2013-03-10 00:40:00,68.5,66.4,29.70,SSE,163,10.0,18.0,93,0.00,,---,0.00,VWS V14.01,2013-03-10 06:40:00,
2013-03-10 00:45:00,68.4,66.3,29.70,South,185,8.0,18.0,93,0.00,,---,0.00,VWS V14.01,2013-03-10 06:45:00,
2013-03-10 00:50:00,68.5,66.4,29.70,South,191,9.0,18.0,93,0.00,,---,0.00,VWS V14.01,2013-03-10 06:50:00,
2013-03-10 00:55:00,68.5,66.4,29.70,SSE,158,10.0,18.0,93,0.00,,---,0.00,VWS V14.01,2013-03-10 06:55:00,
2013-03-10 00:57:00,68.4,66.3,29.68,South,176,9.0,20.0,93,0.00,,---,0.00,VWS V14.01,2013-03-10 06:57:00,
2013-03-10 00:58:00,68.4,66.3,29.68,SE,145,6.0,20.0,93,0.00,,---,0.00,VWS V14.01,2013-03-10 06:58:00,
2013-03-10 00:59:00,68.4,66.3,29.68,SE,133,9.0,20.0,93,0.00,,---,0.00,VWS V14.01,2013-03-10 06:59:00,
2013-03-10 01:00:00,68.6,66.5,29.69,SSE,147,11.0,18.0,93,0.00,,---,0.00,VWS V14.01,2013-03-10 07:00:00,
2013-03-10 01:05:00,68.6,66.5,29.69,SE,128,11.0,15.0,93,0.00,,---,0.00,VWS V14.01,2013-03-10 07:05:00,
2013-03-10 01:10:00,68.6,66.5,29.69,SSW,198,7.0,20.0,93,0.00,,---,0.00,VWS V14.01,2013-03-10 07:10:00,
2013-03-10 01:15:00,68.6,66.2,29.69,South,172,12.0,20.0,92,0.00,,---,0.00,VWS V14.01,2013-03-10 07:15:00,
2013-03-10 01:20:00,68.6,66.2,29.68,SSE,148,10.0,20.0,92,0.00,,---,0.00,VWS V14.01,2013-03-10 07:20:00,
2013-03-10 01:25:00,68.5,66.1,29.68,SSE,166,14.0,20.0,92,0.00,,---,0.00,VWS V14.01,2013-03-10 07:25:00,
2013-03-10 01:30:00,68.5,66.4,29.67,South,171,14.0,20.0,93,0.00,,---,0.00,VWS V14.01,2013-03-10 07:30:00,
2013-03-10 01:35:00,68.5,66.4,29.68,SE,138,8.0,20.0,93,0.00,,---,0.00,VWS V14.01,2013-03-10 07:35:00,
2013-03-10 01:40:00,68.6,66.2,29.68,SE,142,8.0,20.0,92,0.00,,---,0.00,VWS V14.01,2013-03-10 07:40:00,
2013-03-10 01:45:00,68.5,66.1,29.67,SSE,163,11.0,20.0,92,0.00,,---,0.00,VWS V14.01,2013-03-10 07:45:00,
2013-03-10 01:50:00,68.5,66.1,29.68,South,170,11.0,20.0,92,0.00,,---,0.00,VWS V14.01,2013-03-10 07:50:00,
2013-03-10 01:55:00,68.4,66.3,29.68,SSE,160,11.0,20.0,93,0.00,,---,0.00,VWS V14.01,2013-03-10 07:55:00,
2013-03-10 03:02:00,68.4,66.3,29.68,SE,145,9.0,20.0,93,0.00,,---,0.00,VWS V14.01,2013-03-10 08:02:00,
2013-03-10 03:07:00,68.3,66.2,29.67,SE,138,7.0,13.0,93,0.00,,---,0.00,VWS V14.01,2013-03-10 08:07:00,
2013-03-10 03:12:00,68.3,66.2,29.67,SE,133,8.0,13.0,93,0.00,,---,0.00,VWS V14.01,2013-03-10 08:12:00,
2013-03-10 03:17:00,68.3,66.2,29.67,SE,142,5.0,15.0,93,0.00,,---,0.00,VWS V14.01,2013-03-10 08:17:00,
2013-03-10 03:22:00,68.3,66.2,29.67,SSE,153,10.0,15.0,93,0.00,,---,0.00,VWS V14.01,2013-03-10 08:22:00,
2013-03-10 03:27:00,68.3,66.2,29.67,SE,143,10.0,15.0,93,0.00,,---,0.00,VWS V14.01,2013-03-10 08:27:00,
2013-03-10 03:32:00,68.4,66.3,29.67,SE,136,9.0,15.0,93,0.00,,---,0.00,VWS V14.01,2013-03-10 08:32:00,
2013-03-10 03:37:00,68.4,66.3,29.67,SSE,155,8.0,16.0,93,0.00,,---,0.00,VWS V14.01,2013-03-10 08:37:00,
2013-03-10 03:42:00,68.6,66.2,29.67,SSE,158,11.0,16.0,92,0.00,,---,0.00,VWS V14.01,2013-03-10 08:42:00,
2013-03-10 03:47:00,68.7,66.3,29.67,South,174,17.0,18.0,92,0.00,,---,0.00,VWS V14.01,2013-03-10 08:47:00,
2013-03-10 03:52:00,68.8,66.1,29.67,SSE,159,12.0,18.0,91,0.00,,---,0.00,VWS V14.01,2013-03-10 08:52:00,
2013-03-10 03:57:00,68.8,66.1,29.66,ENE,63,6.0,18.0,91,0.00,,---,0.00,VWS V14.01,2013-03-10 08:57:00,
2013-03-10 04:02:00,68.8,66.1,29.66,SE,129,12.0,18.0,91,0.00,,---,0.00,VWS V14.01,2013-03-10 09:02:00,
2013-03-10 04:07:00,68.8,66.4,29.67,ESE,109,7.0,18.0,92,0.00,,---,0.00,VWS V14.01,2013-03-10 09:07:00,
2013-03-10 04:12:00,68.9,66.2,29.67,SE,141,11.0,18.0,91,0.00,,---,0.00,VWS V14.01,2013-03-10 09:12:00,
2013-03-10 04:17:00,69.0,66.3,29.67,SSE,153,11.0,18.0,91,0.00,,---,0.00,VWS V14.01,2013-03-10 09:17:00,
2013-03-10 04:22:00,69.0,66.3,29.67,SE,141,8.0,19.0,91,0.00,,---,0.00,VWS V14.01,2013-03-10 09:22:00,
2013-03-10 04:27:00,69.0,66.3,29.67,ESE,116,13.0,19.0,91,0.00,,---,0.00,VWS V14.01,2013-03-10 09:27:00,
2013-03-10 04:32:00,69.0,66.3,29.67,South,171,12.0,19.0,91,0.00,,---,0.00,VWS V14.01,2013-03-10 09:32:00,
2013-03-10 04:37:00,69.0,66.3,29.67,East,98,14.0,19.0,91,0.00,,---,0.00,VWS V14.01,2013-03-10 09:37:00,
2013-03-10 04:42:00,69.0,66.3,29.67,ESE,115,13.0,19.0,91,0.00,,---,0.00,VWS V14.01,2013-03-10 09:42:00,
2013-03-10 04:47:00,69.0,66.3,29.67,SSE,167,12.0,19.0,91,0.00,,---,0.00,VWS V14.01,2013-03-10 09:47:00,
2013-03-10 04:52:00,69.0,66.3,29.68,SSE,163,8.0,19.0,91,0.00,,---,0.00,VWS V14.01,2013-03-10 09:52:00,
2013-03-10 04:57:00,69.0,66.3,29.70,South,169,2.0,19.0,91,0.00,,---,0.00,VWS V14.01,2013-03-10 09:57:00,
2013-03-10 05:02:00,69.0,66.3,29.73,West,271,0.0,19.0,91,0.00,,---,0.00,VWS V14.01,2013-03-10 10:02:00,
2013-03-10 05:07:00,69.1,66.4,29.76,WNW,293,4.0,6.0,91,0.00,,---,0.00,VWS V14.01,2013-03-10 10:07:00,
2013-03-10 05:12:00,69.2,66.5,29.76,WNW,293,2.0,6.0,91,0.00,,---,0.00,VWS V14.01,2013-03-10 10:12:00,
2013-03-10 05:17:00,69.4,66.7,29.76,West,276,0.0,6.0,91,0.00,,---,0.00,VWS V14.01,2013-03-10 10:17:00,
2013-03-10 05:22:00,69.4,66.7,29.76,West,267,0.0,6.0,91,0.00,,---,0.00,VWS V14.01,2013-03-10 10:22:00,
2013-03-10 05:27:00,69.4,66.7,29.75,West,267,0.0,6.0,91,0.00,,---,0.00,VWS V14.01,2013-03-10 10:27:00,
2013-03-10 05:32:00,69.5,66.8,29.76,South,177,1.0,8.0,91,0.00,,---,0.00,VWS V14.01,2013-03-10 10:32:00,
2013-03-10 05:37:00,69.7,67.0,29.76,SW,216,0.0,8.0,91,0.00,,---,0.00,VWS V14.01,2013-03-10 10:37:00,
2013-03-10 05:42:00,69.8,67.1,29.76,South,188,0.0,8.0,91,0.00,,---,0.00,VWS V14.01,2013-03-10 10:42:00,
2013-03-10 05:47:00,69.8,67.1,29.76,SSE,161,2.0,8.0,91,0.00,,---,0.00,VWS V14.01,2013-03-10 10:47:00,
2013-03-10 05:52:00,69.9,67.2,29.76,SSW,196,2.0,8.0,91,0.00,,---,0.00,VWS V14.01,2013-03-10 10:52:00,
2013-03-10 05:56:00,69.9,66.8,29.76,SE,145,3.0,8.0,90,0.00,,---,0.00,VWS V14.01,2013-03-10 10:56:00,
2013-03-10 06:01:00,69.8,66.7,29.76,SSE,153,1.0,8.0,90,0.00,,---,0.00,VWS V14.01,2013-03-10 11:01:00,
2013-03-10 06:06:00,69.8,66.7,29.77,South,190,0.0,4.0,90,0.00,,---,0.00,VWS V14.01,2013-03-10 11:06:00,
2013-03-10 06:11:00,69.8,67.1,29.76,SSE,148,0.0,4.0,91,0.00,,---,0.00,VWS V14.01,2013-03-10 11:11:00,
2013-03-10 06:16:00,69.7,67.0,29.76,SE,138,1.0,4.0,91,0.00,,---,0.00,VWS V14.01,2013-03-10 11:16:00,
2013-03-10 06:21:00,69.5,66.8,29.76,SSE,148,3.0,4.0,91,0.00,,---,0.00,VWS V14.01,2013-03-10 11:21:00,
2013-03-10 06:26:00,69.4,66.7,29.76,SSE,150,1.0,4.0,91,0.00,,---,0.00,VWS V14.01,2013-03-10 11:26:00,
2013-03-10 06:31:00,69.3,66.6,29.76,SE,129,1.0,4.0,91,0.00,,---,0.00,VWS V14.01,2013-03-10 11:31:00,
2013-03-10 06:36:00,69.2,66.5,29.76,SE,127,3.0,5.0,91,0.00,,---,0.00,VWS V14.01,2013-03-10 11:36:00,
2013-03-10 06:41:00,69.2,66.8,29.76,SSE,162,3.0,5.0,92,0.00,,---,0.00,VWS V14.01,2013-03-10 11:41:00,
2013-03-10 06:46:00,69.1,66.7,29.76,SSE,165,4.0,5.0,92,0.00,,---,0.00,VWS V14.01,2013-03-10 11:46:00,
2013-03-10 06:51:00,69.0,66.6,29.77,South,180,1.0,5.0,92,0.00,,---,0.00,VWS V14.01,2013-03-10 11:51:00,
2013-03-10 06:56:00,68.8,66.4,29.77,SSE,158,4.0,5.0,92,0.00,,---,0.00,VWS V14.01,2013-03-10 11:56:00,
2013-03-10 07:01:00,68.6,66.2,29.76,SE,127,4.0,5.0,92,0.01,,---,0.01,VWS V14.01,2013-03-10 12:01:00,
2013-03-10 07:06:00,68.3,66.2,29.76,SSE,167,3.0,6.0,93,0.01,,---,0.01,VWS V14.01,2013-03-10 12:06:00,
2013-03-10 07:11:00,68.1,66.0,29.76,ESE,116,1.0,7.0,93,0.01,,---,0.01,VWS V14.01,2013-03-10 12:11:00,
2013-03-10 07:16:00,67.9,66.1,29.76,ESE,113,5.0,7.0,94,0.01,,---,0.01,VWS V14.01,2013-03-10 12:16:00,
2013-03-10 07:21:00,67.8,66.0,29.76,ESE,120,2.0,7.0,94,0.01,,---,0.01,VWS V14.01,2013-03-10 12:21:00,
2013-03-10 07:26:00,67.8,66.0,29.76,ESE,120,7.0,8.0,94,0.01,,---,0.01,VWS V14.01,2013-03-10 12:26:00,
2013-03-10 07:31:00,67.7,65.9,29.76,ESE,116,3.0,8.0,94,0.01,,---,0.01,VWS V14.01,2013-03-10 12:31:00,
2013-03-10 07:36:00,67.7,66.2,29.76,ESE,122,5.0,8.0,95,0.01,,---,0.01,VWS V14.01,2013-03-10 12:36:00,
2013-03-10 07:41:00,67.7,65.9,29.76,SE,146,7.0,9.0,94,0.01,,---,0.01,VWS V14.01,2013-03-10 12:41:00,
2013-03-10 07:46:00,67.7,66.2,29.76,SSE,148,4.0,9.0,95,0.01,,---,0.01,VWS V14.01,2013-03-10 12:46:00,
2013-03-10 07:51:00,67.8,66.3,29.76,SE,143,4.0,9.0,95,0.01,,---,0.01,VWS V14.01,2013-03-10 12:51:00,
2013-03-10 07:56:00,67.7,65.9,29.77,SE,129,6.0,9.0,94,0.01,,---,0.01,VWS V14.01,2013-03-10 12:56:00,
2013-03-10 08:01:00,67.7,65.9,29.77,SSE,166,4.0,9.0,94,0.01,,---,0.01,VWS V14.01,2013-03-10 13:01:00,
2013-03-10 08:06:00,67.6,65.8,29.77,ESE,121,6.0,8.0,94,0.00,,---,0.01,VWS V14.01,2013-03-10 13:06:00,
2013-03-10 08:11:00,67.6,65.8,29.77,ESE,115,5.0,8.0,94,0.00,,---,0.01,VWS V14.01,2013-03-10 13:11:00,
2013-03-10 08:16:00,67.6,65.8,29.77,SSE,166,4.0,8.0,94,0.00,,---,0.01,VWS V14.01,2013-03-10 13:16:00,
2013-03-10 08:21:00,67.6,66.1,29.77,SE,145,3.0,8.0,95,0.00,,---,0.01,VWS V14.01,2013-03-10 13:21:00,
2013-03-10 08:26:00,67.6,66.1,29.77,SE,146,3.0,8.0,95,0.00,,---,0.01,VWS V14.01,2013-03-10 13:26:00,
2013-03-10 08:31:00,67.6,66.1,29.77,SSE,147,5.0,8.0,95,0.00,,---,0.01,VWS V14.01,2013-03-10 13:31:00,
2013-03-10 08:36:00,67.5,66.0,29.77,SE,138,5.0,9.0,95,0.00,,---,0.01,VWS V14.01,2013-03-10 13:36:00,
2013-03-10 08:41:00,67.5,66.0,29.77,SE,134,5.0,9.0,95,0.00,,---,0.01,VWS V14.01,2013-03-10 13:41:00,
2013-03-10 08:46:00,67.5,66.0,29.77,SE,142,5.0,9.0,95,0.00,,---,0.01,VWS V14.01,2013-03-10 13:46:00,
2013-03-10 08:51:00,67.4,65.9,29.78,SE,125,6.0,9.0,95,0.00,,---,0.01,VWS V14.01,2013-03-10 13:51:00,
2013-03-10 08:56:00,67.4,65.9,29.78,SE,134,8.0,9.0,95,0.00,,---,0.01,VWS V14.01,2013-03-10 13:56:00,
2013-03-10 09:01:00,67.4,65.9,29.78,SSE,156,8.0,9.0,95,0.01,,---,0.02,VWS V14.01,2013-03-10 14:01:00,
2013-03-10 09:06:00,67.3,65.8,29.78,SSW,195,10.0,10.0,95,0.01,,---,0.02,VWS V14.01,2013-03-10 14:06:00,
2013-03-10 09:11:00,67.3,65.8,29.78,SE,142,5.0,11.0,95,0.01,,---,0.02,VWS V14.01,2013-03-10 14:11:00,
2013-03-10 09:16:00,67.3,65.8,29.79,ESE,113,7.0,11.0,95,0.01,,---,0.02,VWS V14.01,2013-03-10 14:16:00,
2013-03-10 09:21:00,67.4,66.2,29.79,SSE,149,5.0,11.0,96,0.01,,---,0.02,VWS V14.01,2013-03-10 14:21:00,
2013-03-10 09:26:00,67.5,66.3,29.79,SE,134,3.0,11.0,96,0.01,,---,0.02,VWS V14.01,2013-03-10 14:26:00,
2013-03-10 09:31:00,67.5,66.3,29.80,SE,136,5.0,11.0,96,0.01,,---,0.02,VWS V14.01,2013-03-10 14:31:00,
2013-03-10 09:36:00,67.5,66.3,29.81,West,273,9.0,11.0,96,0.02,,---,0.03,VWS V14.01,2013-03-10 14:36:00,
2013-03-10 09:41:00,64.3,61.3,29.83,NW,323,8.0,21.0,90,0.03,,---,0.04,VWS V14.01,2013-03-10 14:41:00,
2013-03-10 09:46:00,61.3,58.3,29.83,NNE,15,13.0,28.0,90,0.06,,---,0.07,VWS V14.01,2013-03-10 14:46:00,
2013-03-10 09:51:00,58.6,56.3,29.85,North,9,17.0,28.0,92,0.08,,---,0.09,VWS V14.01,2013-03-10 14:51:00,
2013-03-10 09:56:00,57.4,55.7,29.85,North,354,26.0,30.0,94,0.08,,---,0.09,VWS V14.01,2013-03-10 14:56:00,
2013-03-10 10:01:00,57.0,55.6,29.86,NW,326,9.0,30.0,95,0.08,,---,0.09,VWS V14.01,2013-03-10 15:01:00,
2013-03-10 10:06:00,56.9,55.5,29.86,NNW,341,25.0,25.0,95,0.08,,---,0.10,VWS V14.01,2013-03-10 15:06:00,
2013-03-10 10:11:00,56.8,55.1,29.86,NE,41,18.0,26.0,94,0.08,,---,0.10,VWS V14.01,2013-03-10 15:11:00,
2013-03-10 10:16:00,56.8,55.4,29.87,NW,323,17.0,26.0,95,0.08,,---,0.10,VWS V14.01,2013-03-10 15:16:00,
2013-03-10 10:21:00,57.0,55.3,29.87,North,4,17.0,27.0,94,0.08,,---,0.10,VWS V14.01,2013-03-10 15:21:00,
2013-03-10 10:26:00,57.2,55.5,29.88,NNW,331,6.0,29.0,94,0.08,,---,0.10,VWS V14.01,2013-03-10 15:26:00,
2013-03-10 10:31:00,57.4,55.4,29.87,NW,319,11.0,29.0,93,0.08,,---,0.10,VWS V14.01,2013-03-10 15:31:00,
2013-03-10 10:36:00,57.6,55.6,29.88,NNE,23,14.0,29.0,93,0.08,,---,0.10,VWS V14.01,2013-03-10 15:36:00,
2013-03-10 10:41:00,57.7,55.7,29.88,NE,53,10.0,29.0,93,0.08,,---,0.10,VWS V14.01,2013-03-10 15:41:00,
2013-03-10 10:46:00,57.8,55.5,29.88,North,349,12.0,29.0,92,0.08,,---,0.10,VWS V14.01,2013-03-10 15:46:00,
2013-03-10 10:52:00,57.9,55.6,29.88,North,349,10.0,29.0,92,0.08,,---,0.10,VWS V14.01,2013-03-10 15:52:00,
2013-03-10 10:57:00,58.2,55.6,29.88,NNW,331,9.0,29.0,91,0.08,,---,0.10,VWS V14.01,2013-03-10 15:57:00,
2013-03-10 11:02:00,58.5,55.6,29.89,NNE,16,12.0,29.0,90,0.08,,---,0.10,VWS V14.01,2013-03-10 16:02:00,
2013-03-10 11:07:00,58.6,55.7,29.89,North,8,13.0,21.0,90,0.01,,---,0.10,VWS V14.01,2013-03-10 16:07:00,
2013-03-10 11:12:00,58.8,55.9,29.89,NE,40,9.0,21.0,90,0.01,,---,0.10,VWS V14.01,2013-03-10 16:12:00,
2013-03-10 11:17:00,59.0,55.8,29.89,NNE,21,8.0,24.0,89,0.01,,---,0.10,VWS V14.01,2013-03-10 16:17:00,
2013-03-10 11:22:00,59.1,55.2,29.89,NNE,15,14.0,24.0,87,0.01,,---,0.10,VWS V14.01,2013-03-10 16:22:00,
2013-03-10 11:27:00,59.2,55.3,29.89,North,358,16.0,24.0,87,0.01,,---,0.10,VWS V14.01,2013-03-10 16:27:00,
2013-03-10 11:32:00,59.1,55.5,29.89,NE,45,20.0,24.0,88,0.01,,---,0.10,VWS V14.01,2013-03-10 16:32:00,
2013-03-10 11:37:00,59.2,55.3,29.88,NNE,30,17.0,24.0,87,0.01,,---,0.10,VWS V14.01,2013-03-10 16:37:00,
2013-03-10 11:42:00,59.3,55.1,29.88,NE,53,19.0,24.0,86,0.01,,---,0.10,VWS V14.01,2013-03-10 16:42:00,
2013-03-10 11:47:00,59.5,55.3,29.89,NNE,19,12.0,24.0,86,0.01,,---,0.10,VWS V14.01,2013-03-10 16:47:00,
2013-03-10 11:52:00,59.7,55.5,29.88,NNE,27,15.0,24.0,86,0.01,,---,0.10,VWS V14.01,2013-03-10 16:52:00,
2013-03-10 11:57:00,59.9,55.7,29.88,NNE,30,11.0,24.0,86,0.01,,---,0.10,VWS V14.01,2013-03-10 16:57:00,
2013-03-10 12:02:00,60.0,55.8,29.88,ENE,65,18.0,24.0,86,0.01,,---,0.10,VWS V14.01,2013-03-10 17:02:00,
2013-03-10 12:07:00,60.1,55.3,29.88,NE,37,16.0,20.0,84,0.00,,---,0.10,VWS V14.01,2013-03-10 17:07:00,
2013-03-10 12:12:00,60.4,55.5,29.88,NE,47,15.0,20.0,84,0.00,,---,0.10,VWS V14.01,2013-03-10 17:12:00,
2013-03-10 12:17:00,60.7,55.5,29.88,NNE,33,10.0,20.0,83,0.00,,---,0.10,VWS V14.01,2013-03-10 17:17:00,
2013-03-10 12:22:00,61.2,56.0,29.88,NNE,32,12.0,20.0,83,0.00,,---,0.10,VWS V14.01,2013-03-10 17:22:00,
2013-03-10 12:27:00,61.4,55.9,29.89,ENE,59,13.0,20.0,82,0.00,,---,0.10,VWS V14.01,2013-03-10 17:27:00,
2013-03-10 12:32:00,61.7,56.5,29.89,NE,44,13.0,20.0,83,0.00,,---,0.10,VWS V14.01,2013-03-10 17:32:00,
2013-03-10 12:37:00,61.8,56.2,29.90,NNE,33,13.0,20.0,82,0.00,,---,0.10,VWS V14.01,2013-03-10 17:37:00,
2013-03-10 12:42:00,62.0,56.1,29.90,NE,36,17.0,20.0,81,0.00,,---,0.10,VWS V14.01,2013-03-10 17:42:00,
2013-03-10 12:47:00,62.4,56.8,29.90,North,349,8.0,20.0,82,0.00,,---,0.10,VWS V14.01,2013-03-10 17:47:00,
2013-03-10 12:52:00,62.8,56.5,29.90,NNE,21,18.0,20.0,80,0.00,,---,0.10,VWS V14.01,2013-03-10 17:52:00,
2013-03-10 12:57:00,62.7,56.5,29.90,NNE,21,10.0,20.0,80,0.00,,---,0.10,VWS V14.01,2013-03-10 17:57:00,
2013-03-10 13:02:00,62.9,57.0,29.90,NNE,32,9.0,20.0,81,0.00,,---,0.10,VWS V14.01,2013-03-10 18:02:00,
2013-03-10 13:07:00,63.0,56.7,29.91,NNE,16,6.0,14.0,80,0.00,,---,0.10,VWS V14.01,2013-03-10 18:07:00,
2013-03-10 13:12:00,63.3,56.7,29.90,NNW,345,9.0,17.0,79,0.00,,---,0.10,VWS V14.01,2013-03-10 18:12:00,
2013-03-10 13:17:00,63.3,56.3,29.90,NNE,27,9.0,17.0,78,0.00,,---,0.10,VWS V14.01,2013-03-10 18:17:00,
2013-03-10 13:22:00,63.4,56.8,29.90,NNW,345,7.0,17.0,79,0.00,,---,0.10,VWS V14.01,2013-03-10 18:22:00,
2013-03-10 13:27:00,63.4,55.7,29.90,NE,43,5.0,17.0,76,0.00,,---,0.10,VWS V14.01,2013-03-10 18:27:00,
2013-03-10 13:32:00,63.3,55.2,29.90,NNE,12,5.0,17.0,75,0.00,,---,0.10,VWS V14.01,2013-03-10 18:32:00,
2013-03-10 13:37:00,63.5,56.2,29.90,NNE,25,13.0,17.0,77,0.00,,---,0.10,VWS V14.01,2013-03-10 18:37:00,
2013-03-10 13:42:00,63.4,55.3,29.90,NE,47,13.0,17.0,75,0.00,,---,0.10,VWS V14.01,2013-03-10 18:42:00,
2013-03-10 13:47:00,63.5,55.8,29.90,NE,37,5.0,17.0,76,0.00,,---,0.10,VWS V14.01,2013-03-10 18:47:00,
2013-03-10 13:52:00,63.7,55.6,29.90,NE,51,3.0,17.0,75,0.00,,---,0.10,VWS V14.01,2013-03-10 18:52:00,
2013-03-10 13:57:00,64.2,55.8,29.90,NE,44,10.0,17.0,74,0.00,,---,0.10,VWS V14.01,2013-03-10 18:57:00,
2013-03-10 14:02:00,64.6,55.0,29.90,NE,34,12.0,17.0,71,0.00,,---,0.10,VWS V14.01,2013-03-10 19:02:00,
2013-03-10 14:07:00,65.1,55.5,29.89,North,351,8.0,14.0,71,0.00,,---,0.10,VWS V14.01,2013-03-10 19:07:00,
2013-03-10 14:12:00,65.3,54.9,29.89,NNW,339,11.0,17.0,69,0.00,,---,0.10,VWS V14.01,2013-03-10 19:12:00,
2013-03-10 14:17:00,65.3,55.7,29.89,NNE,22,11.0,17.0,71,0.00,,---,0.10,VWS V14.01,2013-03-10 19:17:00,
2013-03-10 14:22:00,65.3,54.5,29.89,NNE,32,12.0,17.0,68,0.00,,---,0.10,VWS V14.01,2013-03-10 19:22:00,
2013-03-10 14:27:00,65.2,54.8,29.89,NNE,29,6.0,17.0,69,0.00,,---,0.10,VWS V14.01,2013-03-10 19:27:00,
2013-03-10 14:32:00,65.4,54.6,29.89,ENE,64,9.0,17.0,68,0.00,,---,0.10,VWS V14.01,2013-03-10 19:32:00,
2013-03-10 14:37:00,65.3,54.5,29.89,North,5,14.0,17.0,68,0.00,,---,0.10,VWS V14.01,2013-03-10 19:37:00,
2013-03-10 14:42:00,65.4,54.2,29.89,NE,34,8.0,17.0,67,0.00,,---,0.10,VWS V14.01,2013-03-10 19:42:00,
2013-03-10 14:47:00,65.4,54.6,29.89,NNE,25,6.0,17.0,68,0.00,,---,0.10,VWS V14.01,2013-03-10 19:47:00,
2013-03-10 14:52:00,65.6,54.8,29.89,North,357,9.0,17.0,68,0.00,,---,0.10,VWS V14.01,2013-03-10 19:52:00,
2013-03-10 14:57:00,66.0,54.7,29.89,NNW,332,9.0,17.0,67,0.00,,---,0.10,VWS V14.01,2013-03-10 19:57:00,
2013-03-10 15:02:00,66.4,54.3,29.89,North,357,5.0,17.0,65,0.00,,---,0.10,VWS V14.01,2013-03-10 20:02:00,
2013-03-10 15:07:00,66.5,53.5,29.89,NNW,342,5.0,15.0,63,0.00,,---,0.10,VWS V14.01,2013-03-10 20:07:00,
2013-03-10 15:12:00,66.4,53.0,29.88,NNE,30,13.0,18.0,62,0.00,,---,0.10,VWS V14.01,2013-03-10 20:12:00,
2013-03-10 15:17:00,66.5,53.5,29.88,NNE,29,14.0,18.0,63,0.00,,---,0.10,VWS V14.01,2013-03-10 20:17:00,
2013-03-10 15:22:00,66.8,54.7,29.88,NNE,18,11.0,18.0,65,0.00,,---,0.10,VWS V14.01,2013-03-10 20:22:00,
2013-03-10 15:27:00,67.1,54.5,29.88,NNE,27,6.0,18.0,64,0.00,,---,0.10,VWS V14.01,2013-03-10 20:27:00,
2013-03-10 15:32:00,67.1,55.0,29.88,NNE,27,14.0,18.0,65,0.00,,---,0.10,VWS V14.01,2013-03-10 20:32:00,
2013-03-10 15:37:00,67.3,54.7,29.88,NE,34,15.0,18.0,64,0.00,,---,0.10,VWS V14.01,2013-03-10 20:37:00,
2013-03-10 15:42:00,67.5,54.9,29.88,NNE,29,14.0,18.0,64,0.00,,---,0.10,VWS V14.01,2013-03-10 20:42:00,
2013-03-10 15:47:00,67.4,56.1,29.88,NNW,340,4.0,18.0,67,0.00,,---,0.10,VWS V14.01,2013-03-10 20:47:00,
2013-03-10 15:52:00,67.7,55.5,29.88,NNE,25,14.0,18.0,65,0.00,,---,0.10,VWS V14.01,2013-03-10 20:52:00,
2013-03-10 15:57:00,67.6,54.6,29.88,NNE,13,13.0,18.0,63,0.00,,---,0.10,VWS V14.01,2013-03-10 20:57:00,
2013-03-10 16:02:00,67.6,55.8,29.88,NNE,19,5.0,18.0,66,0.00,,---,0.10,VWS V14.01,2013-03-10 21:02:00,
2013-03-10 16:07:00,67.8,54.8,29.88,North,8,13.0,16.0,63,0.00,,---,0.10,VWS V14.01,2013-03-10 21:07:00,
2013-03-10 16:12:00,68.4,52.6,29.88,NNE,23,8.0,18.0,57,0.00,,---,0.10,VWS V14.01,2013-03-10 21:12:00,
2013-03-10 16:17:00,69.1,53.2,29.87,NNW,333,14.0,18.0,57,0.00,,---,0.10,VWS V14.01,2013-03-10 21:17:00,
2013-03-10 16:22:00,69.1,53.2,29.88,NNE,25,11.0,18.0,57,0.00,,---,0.10,VWS V14.01,2013-03-10 21:22:00,
2013-03-10 16:27:00,69.5,53.1,29.87,North,6,14.0,18.0,56,0.00,,---,0.10,VWS V14.01,2013-03-10 21:27:00,
2013-03-10 16:32:00,69.3,52.5,29.87,NE,34,9.0,18.0,55,0.00,,---,0.10,VWS V14.01,2013-03-10 21:32:00,
2013-03-10 16:37:00,68.9,52.6,29.88,NNW,335,6.0,18.0,56,0.00,,---,0.10,VWS V14.01,2013-03-10 21:37:00,
2013-03-10 16:42:00,69.0,53.6,29.87,NNE,21,6.0,18.0,58,0.00,,---,0.10,VWS V14.01,2013-03-10 21:42:00,
2013-03-10 16:47:00,68.9,53.1,29.87,NNW,345,12.0,18.0,57,0.00,,---,0.10,VWS V14.01,2013-03-10 21:47:00,
2013-03-10 16:52:00,68.8,53.4,29.87,NNW,345,2.0,18.0,58,0.00,,---,0.10,VWS V14.01,2013-03-10 21:52:00,
2013-03-10 16:57:00,68.8,53.4,29.87,NNW,328,6.0,18.0,58,0.00,,---,0.10,VWS V14.01,2013-03-10 21:57:00,
2013-03-10 17:02:00,69.0,52.2,29.88,NNE,30,10.0,12.0,55,0.00,,---,0.10,VWS V14.01,2013-03-10 22:02:00,
2013-03-10 17:07:00,69.2,52.4,29.87,North,1,10.0,15.0,55,0.00,,---,0.10,VWS V14.01,2013-03-10 22:07:00,
2013-03-10 17:12:00,69.2,53.3,29.87,NNW,346,6.0,16.0,57,0.00,,---,0.10,VWS V14.01,2013-03-10 22:12:00,
2013-03-10 17:17:00,69.5,52.2,29.87,NNE,27,8.0,16.0,54,0.00,,---,0.10,VWS V14.01,2013-03-10 22:17:00,
2013-03-10 17:22:00,69.6,52.2,29.87,NNW,337,10.0,16.0,54,0.00,,---,0.10,VWS V14.01,2013-03-10 22:22:00,
2013-03-10 17:28:00,69.3,53.0,29.88,NNE,18,8.0,16.0,56,0.00,,---,0.10,VWS V14.01,2013-03-10 22:28:00,
2013-03-10 17:33:00,69.2,53.3,29.87,North,11,9.0,16.0,57,0.00,,---,0.10,VWS V14.01,2013-03-10 22:33:00,
2013-03-10 17:38:00,69.0,53.2,29.87,North,6,7.0,16.0,57,0.00,,---,0.10,VWS V14.01,2013-03-10 22:38:00,
2013-03-10 17:43:00,68.9,53.1,29.87,NNE,20,10.0,16.0,57,0.00,,---,0.10,VWS V14.01,2013-03-10 22:43:00,
2013-03-10 17:48:00,68.8,53.4,29.87,NNE,27,12.0,17.0,58,0.00,,---,0.10,VWS V14.01,2013-03-10 22:48:00,
2013-03-10 17:53:00,68.8,53.4,29.87,NW,310,5.0,17.0,58,0.00,,---,0.10,VWS V14.01,2013-03-10 22:53:00,
2013-03-10 17:58:00,69.0,52.7,29.87,NNW,332,11.0,17.0,56,0.00,,---,0.10,VWS V14.01,2013-03-10 22:58:00,
2013-03-10 18:03:00,68.8,52.0,29.86,North,1,3.0,4.0,55,0.00,,---,0.10,VWS V14.01,2013-03-10 23:03:00,
2013-03-10 18:08:00,68.7,51.4,29.86,NNW,330,9.0,13.0,54,0.00,,---,0.10,VWS V14.01,2013-03-10 23:08:00,
2013-03-10 18:13:00,68.9,49.0,29.86,NW,326,4.0,13.0,49,0.00,,---,0.10,VWS V14.01,2013-03-10 23:13:00,
2013-03-10 18:18:00,69.1,49.7,29.87,NNW,327,7.0,16.0,50,0.00,,---,0.10,VWS V14.01,2013-03-10 23:18:00,
2013-03-10 18:23:00,69.3,49.9,29.87,North,355,13.0,18.0,50,0.00,,---,0.10,VWS V14.01,2013-03-10 23:23:00,
2013-03-10 18:27:00,69.5,49.5,29.86,NNW,347,8.0,18.0,49,0.00,,---,0.10,VWS V14.01,2013-03-10 23:27:00,
2013-03-10 18:32:00,69.4,49.4,29.87,NNW,346,14.0,19.0,49,0.00,,---,0.10,VWS V14.01,2013-03-10 23:32:00,
2013-03-10 18:37:00,68.8,50.0,29.87,North,352,10.0,19.0,51,0.00,,---,0.10,VWS V14.01,2013-03-10 23:37:00,
2013-03-10 18:42:00,68.2,48.3,29.88,NNW,340,9.0,19.0,49,0.00,,---,0.10,VWS V14.01,2013-03-10 23:42:00,
2013-03-10 18:47:00,67.8,49.5,29.88,NNE,20,7.0,19.0,52,0.00,,---,0.10,VWS V14.01,2013-03-10 23:47:00,
2013-03-10 18:52:00,67.4,46.5,29.88,North,355,8.0,20.0,47,0.00,,---,0.10,VWS V14.01,2013-03-10 23:52:00,
2013-03-10 18:57:00,67.1,45.1,29.88,NNE,32,8.0,20.0,45,0.00,,---,0.10,VWS V14.01,2013-03-10 23:57:00,
2013-03-10 19:02:00,66.9,46.0,29.89,NNE,30,11.0,11.0,47,0.00,,---,0.10,VWS V14.01,2013-03-11 00:02:00,
2013-03-10 19:07:00,66.8,45.9,29.89,NNW,340,15.0,16.0,47,0.00,,---,0.10,VWS V14.01,2013-03-11 00:07:00,
2013-03-10 19:12:00,66.8,44.8,29.89,NW,305,10.0,16.0,45,0.00,,---,0.10,VWS V14.01,2013-03-11 00:12:00,
2013-03-10 19:17:00,66.5,44.5,29.89,North,11,9.0,16.0,45,0.00,,---,0.10,VWS V14.01,2013-03-11 00:17:00,
2013-03-10 19:22:00,66.1,46.9,29.90,North,353,7.0,16.0,50,0.00,,---,0.10,VWS V14.01,2013-03-11 00:22:00,
2013-03-10 19:28:00,65.7,45.5,29.90,NNW,337,11.0,16.0,48,0.00,,---,0.10,VWS V14.01,2013-03-11 00:28:00,
2013-03-10 19:33:00,65.6,44.8,29.91,NNW,334,10.0,17.0,47,0.00,,---,0.10,VWS V14.01,2013-03-11 00:33:00,
2013-03-10 19:38:00,65.6,45.4,29.92,NNW,340,15.0,17.0,48,0.00,,---,0.10,VWS V14.01,2013-03-11 00:38:00,
2013-03-10 19:43:00,65.6,44.8,29.92,North,353,12.0,17.0,47,0.00,,---,0.10,VWS V14.01,2013-03-11 00:43:00,
2013-03-10 19:48:00,65.5,45.3,29.92,NW,326,15.0,17.0,48,0.00,,---,0.10,VWS V14.01,2013-03-11 00:48:00,
2013-03-10 19:53:00,65.5,44.8,29.92,NNW,329,11.0,17.0,47,0.00,,---,0.10,VWS V14.01,2013-03-11 00:53:00,
2013-03-10 19:58:00,65.4,44.1,29.92,NW,316,11.0,18.0,46,0.00,,---,0.10,VWS V14.01,2013-03-11 00:58:00,
2013-03-10 20:03:00,65.3,44.0,29.93,NW,321,7.0,12.0,46,0.00,,---,0.10,VWS V14.01,2013-03-11 01:03:00,
2013-03-10 20:08:00,65.1,44.9,29.93,NW,307,13.0,16.0,48,0.00,,---,0.10,VWS V14.01,2013-03-11 01:08:00,
2013-03-10 20:13:00,65.1,44.4,29.94,North,354,10.0,17.0,47,0.00,,---,0.10,VWS V14.01,2013-03-11 01:13:00,
2013-03-10 20:18:00,64.9,44.8,29.94,NNW,332,6.0,17.0,48,0.00,,---,0.10,VWS V14.01,2013-03-11 01:18:00,
2013-03-10 20:23:00,64.7,44.6,29.94,NNE,30,13.0,17.0,48,0.00,,---,0.10,VWS V14.01,2013-03-11 01:23:00,
2013-03-10 20:28:00,64.5,44.4,29.94,NW,318,8.0,17.0,48,0.00,,---,0.10,VWS V14.01,2013-03-11 01:28:00,
2013-03-10 20:33:00,64.3,44.2,29.94,NW,325,8.0,18.0,48,0.00,,---,0.10,VWS V14.01,2013-03-11 01:33:00,
2013-03-10 20:38:00,64.1,43.5,29.95,NNW,335,11.0,18.0,47,0.00,,---,0.10,VWS V14.01,2013-03-11 01:38:00,
2013-03-10 20:43:00,63.9,43.8,29.95,NNE,23,9.0,18.0,48,0.00,,---,0.10,VWS V14.01,2013-03-11 01:43:00,
2013-03-10 20:48:00,63.7,44.7,29.96,NNE,25,6.0,18.0,50,0.00,,---,0.10,VWS V14.01,2013-03-11 01:48:00,
2013-03-10 20:53:00,63.5,43.5,29.96,North,354,15.0,21.0,48,0.00,,---,0.10,VWS V14.01,2013-03-11 01:53:00,
2013-03-10 20:58:00,63.4,43.9,29.96,NNW,329,8.0,21.0,49,0.00,,---,0.10,VWS V14.01,2013-03-11 01:58:00,
2013-03-10 21:03:00,63.3,43.8,29.96,NNW,336,9.0,10.0,49,0.00,,---,0.10,VWS V14.01,2013-03-11 02:03:00,
2013-03-10 21:08:00,63.1,43.7,29.96,North,349,10.0,22.0,49,0.00,,---,0.10,VWS V14.01,2013-03-11 02:08:00,
2013-03-10 21:13:00,62.8,43.9,29.96,North,360,7.0,23.0,50,0.00,,---,0.10,VWS V14.01,2013-03-11 02:13:00,
2013-03-10 21:18:00,62.5,43.6,29.96,NNW,343,10.0,23.0,50,0.00,,---,0.10,VWS V14.01,2013-03-11 02:18:00,
2013-03-10 21:23:00,62.3,43.4,29.97,NNE,32,10.0,23.0,50,0.00,,---,0.10,VWS V14.01,2013-03-11 02:23:00,
2013-03-10 21:28:00,62.1,43.8,29.97,NE,49,10.0,23.0,51,0.00,,---,0.10,VWS V14.01,2013-03-11 02:28:00,
2013-03-10 21:33:00,62.0,43.7,29.97,North,8,11.0,23.0,51,0.00,,---,0.10,VWS V14.01,2013-03-11 02:33:00,
2013-03-10 21:38:00,61.9,43.1,29.98,NE,44,10.0,23.0,50,0.00,,---,0.10,VWS V14.01,2013-03-11 02:38:00,
2013-03-10 21:43:00,61.8,43.5,29.98,NNW,332,7.0,23.0,51,0.00,,---,0.10,VWS V14.01,2013-03-11 02:43:00,
2013-03-10 21:48:00,61.7,42.9,29.99,NNW,329,12.0,23.0,50,0.00,,---,0.10,VWS V14.01,2013-03-11 02:48:00,
2013-03-10 21:53:00,61.6,43.8,29.99,NW,321,12.0,23.0,52,0.00,,---,0.10,VWS V14.01,2013-03-11 02:53:00,
2013-03-10 21:58:00,61.4,43.6,30.00,NNE,13,7.0,23.0,52,0.00,,---,0.10,VWS V14.01,2013-03-11 02:58:00,
2013-03-10 22:03:00,61.3,44.0,30.00,NNW,333,15.0,19.0,53,0.00,,---,0.10,VWS V14.01,2013-03-11 03:03:00,
2013-03-10 22:08:00,61.1,44.3,30.00,North,360,14.0,20.0,54,0.00,,---,0.10,VWS V14.01,2013-03-11 03:08:00,
2013-03-10 22:13:00,60.9,44.2,30.00,North,1,20.0,20.0,54,0.00,,---,0.10,VWS V14.01,2013-03-11 03:13:00,
2013-03-10 22:18:00,60.7,44.5,30.01,North,1,15.0,20.0,55,0.00,,---,0.10,VWS V14.01,2013-03-11 03:18:00,
2013-03-10 22:23:00,60.5,44.3,30.02,NE,38,11.0,20.0,55,0.00,,---,0.10,VWS V14.01,2013-03-11 03:23:00,
2013-03-10 22:28:00,60.3,45.0,30.02,NNW,341,12.0,20.0,57,0.00,,---,0.10,VWS V14.01,2013-03-11 03:28:00,
2013-03-10 22:33:00,60.0,44.3,30.03,NE,47,4.0,20.0,56,0.00,,---,0.10,VWS V14.01,2013-03-11 03:33:00,
2013-03-10 22:38:00,59.9,44.2,30.03,NNW,338,9.0,20.0,56,0.00,,---,0.10,VWS V14.01,2013-03-11 03:38:00,
2013-03-10 22:43:00,59.7,44.0,30.04,NNE,14,14.0,20.0,56,0.00,,---,0.10,VWS V14.01,2013-03-11 03:43:00,
2013-03-10 22:48:00,59.7,43.5,30.04,NW,311,11.0,20.0,55,0.00,,---,0.10,VWS V14.01,2013-03-11 03:48:00,
2013-03-10 22:53:00,59.7,43.5,30.05,North,4,15.0,20.0,55,0.00,,---,0.10,VWS V14.01,2013-03-11 03:53:00,
2013-03-10 22:58:00,59.7,43.0,30.05,NNW,332,13.0,21.0,54,0.00,,---,0.10,VWS V14.01,2013-03-11 03:58:00,
2013-03-10 23:00:00,59.7,43.0,30.05,NNW,342,7.0,21.0,54,0.00,,---,0.10,VWS V14.01,2013-03-11 04:00:00,
2013-03-10 23:05:00,59.5,42.9,30.06,NNW,334,10.0,20.0,54,0.00,,---,0.10,VWS V14.01,2013-03-11 04:05:00,
2013-03-10 23:10:00,59.4,42.3,30.05,North,359,13.0,20.0,53,0.00,,---,0.10,VWS V14.01,2013-03-11 04:10:00,
2013-03-10 23:15:00,59.2,42.1,30.06,NNE,20,16.0,20.0,53,0.00,,---,0.10,VWS V14.01,2013-03-11 04:15:00,
2013-03-10 23:20:00,59.1,42.0,30.06,NNE,16,13.0,20.0,53,0.00,,---,0.10,VWS V14.01,2013-03-11 04:20:00,
2013-03-10 23:25:00,59.0,42.4,30.06,NNW,329,10.0,20.0,54,0.00,,---,0.10,VWS V14.01,2013-03-11 04:25:00,
2013-03-10 23:30:00,58.9,42.3,30.06,North,8,14.0,20.0,54,0.00,,---,0.10,VWS V14.01,2013-03-11 04:30:00,
2013-03-10 23:35:00,58.8,43.2,30.06,NNE,13,6.0,20.0,56,0.00,,---,0.10,VWS V14.01,2013-03-11 04:35:00,
2013-03-10 23:40:00,58.7,43.1,30.06,North,357,13.0,20.0,56,0.00,,---,0.10,VWS V14.01,2013-03-11 04:40:00,
2013-03-10 23:45:00,58.6,42.5,30.06,North,357,12.0,20.0,55,0.00,,---,0.10,VWS V14.01,2013-03-11 04:45:00,
2013-03-10 23:50:00,58.5,43.3,30.07,NNW,330,8.0,20.0,57,0.00,,---,0.10,VWS V14.01,2013-03-11 04:50:00,
2013-03-10 23:55:00,58.4,43.2,30.07,NW,316,10.0,20.0,57,0.00,,---,0.10,VWS V14.01,2013-03-11 04:55:00,